Time,TemperatureF,DewpointF,PressureIn,WindDirection,WindDirectionDegrees,WindSpeedMPH,WindSpeedGustMPH,Humidity,HourlyPrecipIn,Conditions,Clouds,dailyrainin,SoftwareType,DateUTC
2013-04-21 00:01:00,48.8,26.7,30.42,NW,315,2.2,7.2,42,0.00,,,0.00,WUHU216HW,2013-04-21 04:01:00,
2013-04-21 00:06:00,48.8,27.2,30.42,WNW,293,4.0,7.2,43,0.00,,,0.00,WUHU216HW,2013-04-21 04:06:00,
2013-04-21 00:11:00,48.6,27.0,30.42,NW,315,2.9,6.9,43,0.00,,,0.00,WUHU216HW,2013-04-21 04:11:00,
2013-04-21 00:16:00,48.6,27.0,30.42,NW,315,2.5,4.0,43,0.00,,,0.00,WUHU216HW,2013-04-21 04:16:00,
2013-04-21 00:21:00,48.2,26.6,30.43,WNW,293,2.7,5.4,43,0.00,,,0.00,WUHU216HW,2013-04-21 04:21:00,
2013-04-21 00:26:00,48.2,26.6,30.43,NNW,338,3.6,5.8,43,0.00,,,0.00,WUHU216HW,2013-04-21 04:26:00,
2013-04-21 00:31:00,48.1,27.0,30.43,North,0,1.6,5.8,44,0.00,,,0.00,WUHU216HW,2013-04-21 04:31:00,
2013-04-21 00:36:00,47.9,26.8,30.43,WNW,293,1.3,3.4,44,0.00,,,0.00,WUHU216HW,2013-04-21 04:36:00,
2013-04-21 00:41:00,47.9,27.4,30.43,NW,315,3.8,4.0,45,0.00,,,0.00,WUHU216HW,2013-04-21 04:41:00,
2013-04-21 00:46:00,47.7,27.3,30.44,NNW,338,1.8,4.0,45,0.00,,,0.00,WUHU216HW,2013-04-21 04:46:00,
2013-04-21 00:51:00,47.5,27.1,30.44,NW,315,3.1,3.8,45,0.00,,,0.00,WUHU216HW,2013-04-21 04:51:00,
2013-04-21 00:56:00,47.3,27.5,30.43,NNW,338,2.5,4.0,46,0.00,,,0.00,WUHU216HW,2013-04-21 04:56:00,
2013-04-21 01:01:00,47.2,27.3,30.44,NW,315,1.8,4.0,46,0.00,,,0.00,WUHU216HW,2013-04-21 05:01:00,
2013-04-21 01:06:00,47.2,27.3,30.44,NNW,338,1.8,3.6,46,0.00,,,0.00,WUHU216HW,2013-04-21 05:06:00,
2013-04-21 01:11:00,47.0,27.6,30.44,NNW,338,2.5,3.6,47,0.00,,,0.00,WUHU216HW,2013-04-21 05:11:00,
2013-04-21 01:16:00,46.8,27.6,30.45,NW,315,1.8,2.5,47,0.00,,,0.00,WUHU216HW,2013-04-21 05:16:00,
2013-04-21 01:21:00,46.6,27.4,30.45,WNW,293,2.0,2.5,47,0.00,,,0.00,WUHU216HW,2013-04-21 05:21:00,
2013-04-21 01:26:00,46.4,27.2,30.45,NW,315,0.9,3.1,47,0.00,,,0.00,WUHU216HW,2013-04-21 05:26:00,
2013-04-21 01:32:00,46.3,27.5,30.46,NNW,338,4.0,4.0,48,0.00,,,0.00,WUHU216HW,2013-04-21 05:32:00,
2013-04-21 01:37:00,46.3,27.5,30.46,North,0,3.1,4.0,48,0.00,,,0.00,WUHU216HW,2013-04-21 05:37:00,
2013-04-21 01:42:00,46.1,27.4,30.46,North,0,2.5,3.4,48,0.00,,,0.00,WUHU216HW,2013-04-21 05:42:00,
2013-04-21 01:47:00,45.9,27.3,30.46,NNW,338,2.9,6.7,48,0.00,,,0.00,WUHU216HW,2013-04-21 05:47:00,
2013-04-21 01:52:00,45.7,26.6,30.46,North,0,4.3,6.7,47,0.00,,,0.00,WUHU216HW,2013-04-21 05:52:00,
2013-04-21 01:57:00,45.7,26.6,30.47,NNW,338,5.4,5.4,47,0.00,,,0.00,WUHU216HW,2013-04-21 05:57:00,
2013-04-21 02:02:00,45.4,26.2,30.47,NW,315,4.0,5.4,47,0.00,,,0.00,WUHU216HW,2013-04-21 06:02:00,
2013-04-21 02:07:00,45.4,25.7,30.47,NNW,338,5.4,8.1,46,0.00,,,0.00,WUHU216HW,2013-04-21 06:07:00,
2013-04-21 02:12:00,45.2,26.0,30.47,North,0,2.7,8.1,47,0.00,,,0.00,WUHU216HW,2013-04-21 06:12:00,
2013-04-21 02:17:00,45.0,25.9,30.48,NNW,338,5.8,5.8,47,0.00,,,0.00,WUHU216HW,2013-04-21 06:17:00,
2013-04-21 02:22:00,44.8,26.3,30.48,NNW,338,4.7,5.8,48,0.00,,,0.00,WUHU216HW,2013-04-21 06:22:00,
2013-04-21 02:27:00,44.6,26.1,30.48,North,0,6.3,6.3,48,0.00,,,0.00,WUHU216HW,2013-04-21 06:27:00,
2013-04-21 02:32:00,44.5,25.9,30.49,North,0,3.4,6.3,48,0.00,,,0.00,WUHU216HW,2013-04-21 06:32:00,
2013-04-21 02:37:00,44.1,25.7,30.49,North,0,6.3,6.3,48,0.00,,,0.00,WUHU216HW,2013-04-21 06:37:00,
2013-04-21 02:42:00,43.9,25.5,30.49,NNW,338,4.0,7.6,48,0.00,,,0.00,WUHU216HW,2013-04-21 06:42:00,
2013-04-21 02:47:00,43.7,25.3,30.49,NNW,338,3.4,8.5,48,0.00,,,0.00,WUHU216HW,2013-04-21 06:47:00,
2013-04-21 02:52:00,43.4,25.5,30.49,NW,315,5.8,8.5,49,0.00,,,0.00,WUHU216HW,2013-04-21 06:52:00,
2013-04-21 02:57:00,43.2,24.9,30.49,NNW,338,3.1,7.2,48,0.00,,,0.00,WUHU216HW,2013-04-21 06:57:00,
2013-04-21 03:02:00,42.8,25.0,30.50,North,0,4.0,7.2,49,0.00,,,0.00,WUHU216HW,2013-04-21 07:02:00,
2013-04-21 03:08:00,42.7,24.3,30.50,NNW,338,3.8,7.4,48,0.00,,,0.00,WUHU216HW,2013-04-21 07:08:00,
2013-04-21 03:13:00,42.3,23.9,30.50,North,0,3.4,7.6,48,0.00,,,0.00,WUHU216HW,2013-04-21 07:13:00,
2013-04-21 03:19:00,42.1,23.2,30.50,North,0,8.5,10.3,47,0.00,,,0.00,WUHU216HW,2013-04-21 07:19:00,
2013-04-21 03:24:00,41.8,22.9,30.50,North,0,8.3,8.5,47,0.00,,,0.00,WUHU216HW,2013-04-21 07:24:00,
2013-04-21 03:29:00,41.6,23.2,30.50,North,0,4.5,8.3,48,0.00,,,0.00,WUHU216HW,2013-04-21 07:29:00,
2013-04-21 03:34:00,41.4,23.0,30.51,NNW,338,3.1,7.6,48,0.00,,,0.00,WUHU216HW,2013-04-21 07:34:00,
2013-04-21 03:39:00,41.2,22.9,30.51,NNW,338,1.6,4.7,48,0.00,,,0.00,WUHU216HW,2013-04-21 07:39:00,
2013-04-21 03:44:00,41.0,22.7,30.51,NNW,338,3.8,4.0,48,0.00,,,0.00,WUHU216HW,2013-04-21 07:44:00,
2013-04-21 03:50:00,40.9,23.0,30.51,NNW,338,3.4,4.7,49,0.00,,,0.00,WUHU216HW,2013-04-21 07:50:00,
2013-04-21 03:55:00,40.7,23.0,30.51,NNW,338,3.8,4.9,49,0.00,,,0.00,WUHU216HW,2013-04-21 07:55:00,
2013-04-21 04:01:00,40.5,22.8,30.51,NNW,338,2.5,4.9,49,0.00,,,0.00,WUHU216HW,2013-04-21 08:01:00,
2013-04-21 04:06:00,40.3,22.6,30.51,NNW,338,3.6,7.6,49,0.00,,,0.00,WUHU216HW,2013-04-21 08:06:00,
2013-04-21 04:11:00,40.3,22.6,30.52,NNW,338,4.0,7.6,49,0.00,,,0.00,WUHU216HW,2013-04-21 08:11:00,
2013-04-21 04:16:00,40.1,22.4,30.52,North,0,3.4,4.3,49,0.00,,,0.00,WUHU216HW,2013-04-21 08:16:00,
2013-04-21 04:21:00,40.0,22.2,30.53,NNW,338,5.4,5.4,49,0.00,,,0.00,WUHU216HW,2013-04-21 08:21:00,
2013-04-21 04:26:00,40.0,22.2,30.53,North,0,1.1,5.4,49,0.00,,,0.00,WUHU216HW,2013-04-21 08:26:00,
2013-04-21 04:31:00,39.8,22.2,30.53,NNW,338,1.1,4.3,49,0.00,,,0.00,WUHU216HW,2013-04-21 08:31:00,
2013-04-21 04:36:00,39.6,22.0,30.54,NNW,338,1.8,2.9,49,0.00,,,0.00,WUHU216HW,2013-04-21 08:36:00,
2013-04-21 04:41:00,39.6,22.0,30.54,NNW,338,2.2,5.4,49,0.00,,,0.00,WUHU216HW,2013-04-21 08:41:00,
2013-04-21 04:46:00,39.4,21.8,30.54,NW,315,2.5,5.4,49,0.00,,,0.00,WUHU216HW,2013-04-21 08:46:00,
2013-04-21 04:51:00,39.2,21.6,30.54,NNW,338,4.3,4.3,49,0.00,,,0.00,WUHU216HW,2013-04-21 08:51:00,
2013-04-21 04:56:00,39.2,21.6,30.55,NNW,338,1.8,4.3,49,0.00,,,0.00,WUHU216HW,2013-04-21 08:56:00,
2013-04-21 05:01:00,39.1,21.4,30.55,NW,315,0.4,2.9,49,0.00,,,0.00,WUHU216HW,2013-04-21 09:01:00,
2013-04-21 05:06:00,38.9,21.8,30.55,North,0,2.5,2.7,50,0.00,,,0.00,WUHU216HW,2013-04-21 09:06:00,
2013-04-21 05:12:00,38.7,21.7,30.55,NNW,338,3.4,3.4,50,0.00,,,0.00,WUHU216HW,2013-04-21 09:12:00,
2013-04-21 05:17:00,38.7,21.7,30.56,NW,315,2.5,5.6,50,0.00,,,0.00,WUHU216HW,2013-04-21 09:17:00,
2013-04-21 05:22:00,38.5,21.5,30.56,NNW,338,2.5,5.6,50,0.00,,,0.00,WUHU216HW,2013-04-21 09:22:00,
2013-04-21 05:27:00,38.5,21.5,30.56,North,0,2.5,3.1,50,0.00,,,0.00,WUHU216HW,2013-04-21 09:27:00,
2013-04-21 05:32:00,38.3,21.3,30.57,NNW,338,3.6,4.0,50,0.00,,,0.00,WUHU216HW,2013-04-21 09:32:00,
2013-04-21 05:37:00,38.2,21.2,30.57,NNW,338,1.8,4.3,50,0.00,,,0.00,WUHU216HW,2013-04-21 09:37:00,
2013-04-21 05:42:00,38.2,21.6,30.57,NNW,338,2.2,4.3,51,0.00,,,0.00,WUHU216HW,2013-04-21 09:42:00,
2013-04-21 05:47:00,38.0,21.4,30.57,NNW,338,4.3,5.1,51,0.00,,,0.00,WUHU216HW,2013-04-21 09:47:00,
2013-04-21 05:52:00,38.0,21.4,30.57,NNW,338,4.0,5.1,51,0.00,,,0.00,WUHU216HW,2013-04-21 09:52:00,
2013-04-21 05:57:00,38.0,21.4,30.58,North,0,5.4,5.4,51,0.00,,,0.00,WUHU216HW,2013-04-21 09:57:00,
2013-04-21 06:02:00,38.2,22.1,30.58,NW,315,1.1,5.4,52,0.00,,,0.00,WUHU216HW,2013-04-21 10:02:00,
2013-04-21 06:07:00,38.0,21.9,30.58,North,0,2.2,5.4,52,0.00,,,0.00,WUHU216HW,2013-04-21 10:07:00,
2013-04-21 06:12:00,37.8,21.7,30.59,NNE,23,1.6,2.2,52,0.00,,,0.00,WUHU216HW,2013-04-21 10:12:00,
2013-04-21 06:17:00,37.8,21.7,30.59,North,0,2.5,4.7,52,0.00,,,0.00,WUHU216HW,2013-04-21 10:17:00,
2013-04-21 06:22:00,37.8,22.1,30.59,NNW,338,2.5,4.7,53,0.00,,,0.00,WUHU216HW,2013-04-21 10:22:00,
2013-04-21 06:27:00,37.6,22.0,30.60,NNW,338,1.1,3.1,53,0.00,,,0.00,WUHU216HW,2013-04-21 10:27:00,
2013-04-21 06:32:00,37.6,22.0,30.60,NNW,338,1.1,3.1,53,0.00,,,0.00,WUHU216HW,2013-04-21 10:32:00,
2013-04-21 06:37:00,37.8,22.6,30.60,NW,315,1.1,4.0,54,0.00,,,0.00,WUHU216HW,2013-04-21 10:37:00,
2013-04-21 06:42:00,37.8,22.6,30.61,NNW,338,1.8,4.0,54,0.00,,,0.00,WUHU216HW,2013-04-21 10:42:00,
2013-04-21 06:47:00,38.0,22.8,30.62,North,0,1.6,3.1,54,0.00,,,0.00,WUHU216HW,2013-04-21 10:47:00,
2013-04-21 06:52:00,38.2,23.3,30.62,NNW,338,2.0,2.0,55,0.00,,,0.00,WUHU216HW,2013-04-21 10:52:00,
2013-04-21 06:57:00,38.5,23.7,30.62,NNW,338,1.6,3.8,55,0.00,,,0.00,WUHU216HW,2013-04-21 10:57:00,
2013-04-21 07:02:00,38.5,23.7,30.62,North,0,1.8,3.8,55,0.00,,,0.00,WUHU216HW,2013-04-21 11:02:00,
2013-04-21 07:07:00,38.7,23.9,30.63,North,0,2.2,2.9,55,0.00,,,0.00,WUHU216HW,2013-04-21 11:07:00,
2013-04-21 07:12:00,38.9,23.9,30.63,North,0,1.8,2.9,55,0.00,,,0.00,WUHU216HW,2013-04-21 11:12:00,
2013-04-21 07:17:00,39.1,23.7,30.64,North,0,2.0,3.1,54,0.00,,,0.00,WUHU216HW,2013-04-21 11:17:00,
2013-04-21 07:22:00,39.2,23.9,30.64,NNW,338,1.8,3.1,54,0.00,,,0.00,WUHU216HW,2013-04-21 11:22:00,
2013-04-21 07:27:00,39.6,24.2,30.64,NE,45,4.0,4.0,54,0.00,,,0.00,WUHU216HW,2013-04-21 11:27:00,
2013-04-21 07:32:00,40.0,24.6,30.64,North,0,2.0,5.1,54,0.00,,,0.00,WUHU216HW,2013-04-21 11:32:00,
2013-04-21 07:37:00,40.1,24.8,30.64,North,0,1.3,5.1,54,0.00,,,0.00,WUHU216HW,2013-04-21 11:37:00,
2013-04-21 07:42:00,40.3,24.5,30.64,NNW,338,3.4,3.4,53,0.00,,,0.00,WUHU216HW,2013-04-21 11:42:00,
2013-04-21 07:47:00,40.5,24.1,30.64,NNE,23,1.1,4.7,52,0.00,,,0.00,WUHU216HW,2013-04-21 11:47:00,
2013-04-21 07:52:00,40.9,24.5,30.64,NNW,338,6.5,6.5,52,0.00,,,0.00,WUHU216HW,2013-04-21 11:52:00,
2013-04-21 07:58:00,41.0,24.7,30.64,North,0,4.7,6.5,52,0.00,,,0.00,WUHU216HW,2013-04-21 11:58:00,
2013-04-21 08:03:00,41.2,24.4,30.65,North,0,3.6,5.6,51,0.00,,,0.00,WUHU216HW,2013-04-21 12:03:00,
2013-04-21 08:10:00,41.4,24.6,30.65,NNE,23,4.3,6.9,51,0.00,,,0.00,WUHU216HW,2013-04-21 12:10:00,
2013-04-21 08:15:00,41.6,24.3,30.66,North,0,6.5,6.9,50,0.00,,,0.00,WUHU216HW,2013-04-21 12:15:00,
2013-04-21 08:20:00,41.9,25.1,30.66,North,0,2.2,7.2,51,0.00,,,0.00,WUHU216HW,2013-04-21 12:20:00,
2013-04-21 08:25:00,42.1,24.8,30.66,NNW,338,5.1,7.2,50,0.00,,,0.00,WUHU216HW,2013-04-21 12:25:00,
2013-04-21 08:30:00,42.1,24.8,30.66,NNE,23,6.3,7.6,50,0.00,,,0.00,WUHU216HW,2013-04-21 12:30:00,
2013-04-21 08:35:00,42.5,26.1,30.66,North,0,4.9,7.6,52,0.00,,,0.00,WUHU216HW,2013-04-21 12:35:00,
2013-04-21 08:40:00,42.8,25.6,30.66,North,0,5.1,5.8,50,0.00,,,0.00,WUHU216HW,2013-04-21 12:40:00,
2013-04-21 08:45:00,42.8,26.0,30.66,NNW,338,2.7,5.6,51,0.00,,,0.00,WUHU216HW,2013-04-21 12:45:00,
2013-04-21 08:51:00,43.2,26.3,30.66,ESE,113,1.8,7.6,51,0.00,,,0.00,WUHU216HW,2013-04-21 12:51:00,
2013-04-21 08:56:00,43.4,26.0,30.66,North,0,5.1,7.6,50,0.00,,,0.00,WUHU216HW,2013-04-21 12:56:00,
2013-04-21 09:01:00,43.2,25.9,30.67,NNW,338,3.8,5.6,50,0.00,,,0.00,WUHU216HW,2013-04-21 13:01:00,
2013-04-21 09:06:00,43.2,25.9,30.67,NNW,338,4.0,5.6,50,0.00,,,0.00,WUHU216HW,2013-04-21 13:06:00,
2013-04-21 09:11:00,43.4,25.5,30.67,North,0,2.9,8.1,49,0.00,,,0.00,WUHU216HW,2013-04-21 13:11:00,
2013-04-21 09:16:00,43.6,25.1,30.67,North,0,4.3,8.1,48,0.00,,,0.00,WUHU216HW,2013-04-21 13:16:00,
2013-04-21 09:21:00,43.6,25.1,30.67,NNE,23,5.8,7.4,48,0.00,,,0.00,WUHU216HW,2013-04-21 13:21:00,
2013-04-21 09:26:00,43.6,25.7,30.68,North,0,3.1,6.3,49,0.00,,,0.00,WUHU216HW,2013-04-21 13:26:00,
2013-04-21 09:31:00,43.9,26.0,30.68,NNE,23,3.1,8.3,49,0.00,,,0.00,WUHU216HW,2013-04-21 13:31:00,
2013-04-21 09:36:00,44.3,26.3,30.68,ENE,68,2.5,8.3,49,0.00,,,0.00,WUHU216HW,2013-04-21 13:36:00,
2013-04-21 09:41:00,44.5,26.5,30.69,NNW,338,4.9,4.9,49,0.00,,,0.00,WUHU216HW,2013-04-21 13:41:00,
2013-04-21 09:46:00,44.6,26.1,30.69,NNW,338,6.5,6.5,48,0.00,,,0.00,WUHU216HW,2013-04-21 13:46:00,
2013-04-21 09:51:00,44.6,26.1,30.69,North,0,6.9,6.9,48,0.00,,,0.00,WUHU216HW,2013-04-21 13:51:00,
2013-04-21 09:56:00,45.2,27.1,30.69,ENE,68,4.9,6.9,49,0.00,,,0.00,WUHU216HW,2013-04-21 13:56:00,
2013-04-21 10:01:00,45.5,26.4,30.69,NW,315,4.5,6.9,47,0.00,,,0.00,WUHU216HW,2013-04-21 14:01:00,
2013-04-21 10:06:00,45.4,26.2,30.69,NW,315,2.5,6.3,47,0.00,,,0.00,WUHU216HW,2013-04-21 14:06:00,
2013-04-21 10:11:00,45.5,26.4,30.69,East,90,2.2,6.3,47,0.00,,,0.00,WUHU216HW,2013-04-21 14:11:00,
2013-04-21 10:16:00,45.7,27.1,30.70,SE,135,2.5,6.9,48,0.00,,,0.00,WUHU216HW,2013-04-21 14:16:00,
2013-04-21 10:21:00,46.4,27.7,30.70,NNE,23,3.8,6.9,48,0.00,,,0.00,WUHU216HW,2013-04-21 14:21:00,
2013-04-21 10:26:00,46.6,27.9,30.70,NNE,23,3.1,5.8,48,0.00,,,0.00,WUHU216HW,2013-04-21 14:26:00,
2013-04-21 10:31:00,46.8,28.1,30.71,North,0,4.7,5.4,48,0.00,,,0.00,WUHU216HW,2013-04-21 14:31:00,
2013-04-21 10:36:00,47.2,27.8,30.71,ESE,113,2.9,6.9,47,0.00,,,0.00,WUHU216HW,2013-04-21 14:36:00,
2013-04-21 10:41:00,47.5,28.2,30.71,NE,45,4.0,6.9,47,0.00,,,0.00,WUHU216HW,2013-04-21 14:41:00,
2013-04-21 10:46:00,47.3,26.9,30.71,North,0,4.9,4.9,45,0.00,,,0.00,WUHU216HW,2013-04-21 14:46:00,
2013-04-21 10:51:00,47.2,27.3,30.70,NNW,338,4.7,4.9,46,0.00,,,0.00,WUHU216HW,2013-04-21 14:51:00,
2013-04-21 10:56:00,47.3,27.5,30.70,North,0,5.4,5.4,46,0.00,,,0.00,WUHU216HW,2013-04-21 14:56:00,
2013-04-21 11:01:00,47.5,27.6,30.70,NW,315,2.0,5.4,46,0.00,,,0.00,WUHU216HW,2013-04-21 15:01:00,
2013-04-21 11:06:00,47.7,27.3,30.70,North,0,4.5,5.8,45,0.00,,,0.00,WUHU216HW,2013-04-21 15:06:00,
2013-04-21 11:11:00,47.7,27.3,30.71,North,0,2.9,5.8,45,0.00,,,0.00,WUHU216HW,2013-04-21 15:11:00,
2013-04-21 11:16:00,47.9,27.4,30.71,NNW,338,3.4,4.5,45,0.00,,,0.00,WUHU216HW,2013-04-21 15:16:00,
2013-04-21 11:21:00,47.7,27.3,30.71,North,0,1.8,4.9,45,0.00,,,0.00,WUHU216HW,2013-04-21 15:21:00,
2013-04-21 11:26:00,48.1,27.5,30.71,NNE,23,2.5,5.6,45,0.00,,,0.00,WUHU216HW,2013-04-21 15:26:00,
2013-04-21 11:31:00,48.6,28.6,30.71,North,0,5.4,5.6,46,0.00,,,0.00,WUHU216HW,2013-04-21 15:31:00,
2013-04-21 11:36:00,48.8,28.8,30.71,North,0,2.5,5.4,46,0.00,,,0.00,WUHU216HW,2013-04-21 15:36:00,
2013-04-21 11:41:00,49.3,29.9,30.71,ESE,113,4.0,5.1,47,0.00,,,0.00,WUHU216HW,2013-04-21 15:41:00,
2013-04-21 11:47:00,50.0,30.5,30.71,East,90,3.4,4.0,47,0.00,,,0.00,WUHU216HW,2013-04-21 15:47:00,
2013-04-21 11:52:00,50.4,30.9,30.70,ESE,113,4.0,6.9,47,0.00,,,0.00,WUHU216HW,2013-04-21 15:52:00,
2013-04-21 11:57:00,50.8,31.2,30.70,SE,135,4.5,6.9,47,0.00,,,0.00,WUHU216HW,2013-04-21 15:57:00,
2013-04-21 12:02:00,50.9,31.3,30.70,East,90,1.1,4.5,47,0.00,,,0.00,WUHU216HW,2013-04-21 16:02:00,
2013-04-21 12:07:00,50.9,31.3,30.70,ENE,68,3.4,4.7,47,0.00,,,0.00,WUHU216HW,2013-04-21 16:07:00,
2013-04-21 12:12:00,51.5,31.9,30.70,NNE,23,3.4,5.8,47,0.00,,,0.00,WUHU216HW,2013-04-21 16:12:00,
2013-04-21 12:17:00,51.5,31.3,30.70,North,0,3.4,5.8,46,0.00,,,0.00,WUHU216HW,2013-04-21 16:17:00,
2013-04-21 12:22:00,51.5,31.3,30.70,SE,135,3.6,3.8,46,0.00,,,0.00,WUHU216HW,2013-04-21 16:22:00,
2013-04-21 12:27:00,51.7,32.1,30.70,ESE,113,2.0,3.8,47,0.00,,,0.00,WUHU216HW,2013-04-21 16:27:00,
2013-04-21 12:32:00,52.6,32.9,30.70,ESE,113,3.4,3.6,47,0.00,,,0.00,WUHU216HW,2013-04-21 16:32:00,
2013-04-21 12:37:00,52.9,32.6,30.70,NE,45,6.3,6.3,46,0.00,,,0.00,WUHU216HW,2013-04-21 16:37:00,
2013-04-21 12:42:00,53.1,33.3,30.70,SE,135,4.7,6.3,47,0.00,,,0.00,WUHU216HW,2013-04-21 16:42:00,
2013-04-21 12:47:00,53.3,33.0,30.70,ENE,68,3.6,6.3,46,0.00,,,0.00,WUHU216HW,2013-04-21 16:47:00,
2013-04-21 12:52:00,53.3,33.0,30.70,NE,45,4.0,4.0,46,0.00,,,0.00,WUHU216HW,2013-04-21 16:52:00,
2013-04-21 12:57:00,53.3,33.0,30.69,East,90,2.5,4.0,46,0.00,,,0.00,WUHU216HW,2013-04-21 16:57:00,
2013-04-21 13:02:00,53.5,33.0,30.69,SE,135,2.7,4.0,46,0.00,,,0.00,WUHU216HW,2013-04-21 17:02:00,
2013-04-21 13:07:00,53.8,32.9,30.69,NE,45,7.2,7.2,45,0.00,,,0.00,WUHU216HW,2013-04-21 17:07:00,
2013-04-21 13:12:00,53.6,33.2,30.70,East,90,4.3,7.2,46,0.00,,,0.00,WUHU216HW,2013-04-21 17:12:00,
2013-04-21 13:17:00,53.3,32.3,30.70,SE,135,2.0,7.2,45,0.00,,,0.00,WUHU216HW,2013-04-21 17:17:00,
2013-04-21 13:22:00,53.3,33.0,30.70,ESE,113,3.4,6.3,46,0.00,,,0.00,WUHU216HW,2013-04-21 17:22:00,
2013-04-21 13:27:00,53.3,33.0,30.70,ENE,68,5.4,5.4,46,0.00,,,0.00,WUHU216HW,2013-04-21 17:27:00,
2013-04-21 13:32:00,53.3,33.0,30.70,East,90,4.0,5.4,46,0.00,,,0.00,WUHU216HW,2013-04-21 17:32:00,
2013-04-21 13:37:00,53.8,33.4,30.69,ESE,113,4.7,5.4,46,0.00,,,0.00,WUHU216HW,2013-04-21 17:37:00,
2013-04-21 13:42:00,53.8,33.4,30.70,ENE,68,1.3,4.7,46,0.00,,,0.00,WUHU216HW,2013-04-21 17:42:00,
2013-04-21 13:47:00,54.4,33.8,30.69,ESE,113,1.8,4.7,46,0.00,,,0.00,WUHU216HW,2013-04-21 17:47:00,
2013-04-21 13:52:00,54.7,34.2,30.70,SE,135,3.1,4.7,46,0.00,,,0.00,WUHU216HW,2013-04-21 17:52:00,
2013-04-21 13:57:00,54.9,34.4,30.70,East,90,1.8,4.3,46,0.00,,,0.00,WUHU216HW,2013-04-21 17:57:00,
2013-04-21 14:02:00,54.9,33.9,30.70,SE,135,1.8,5.4,45,0.00,,,0.00,WUHU216HW,2013-04-21 18:02:00,
2013-04-21 14:07:00,55.1,33.9,30.70,NE,45,4.9,5.4,45,0.00,,,0.00,WUHU216HW,2013-04-21 18:07:00,
2013-04-21 14:12:00,55.3,33.6,30.70,ESE,113,3.8,4.9,44,0.00,,,0.00,WUHU216HW,2013-04-21 18:12:00,
2013-04-21 14:17:00,55.3,33.6,30.70,ESE,113,1.1,4.9,44,0.00,,,0.00,WUHU216HW,2013-04-21 18:17:00,
2013-04-21 14:22:00,55.3,33.0,30.70,ENE,68,8.5,9.2,43,0.00,,,0.00,WUHU216HW,2013-04-21 18:22:00,
2013-04-21 14:27:00,54.9,32.7,30.70,ENE,68,4.0,9.2,43,0.00,,,0.00,WUHU216HW,2013-04-21 18:27:00,
2013-04-21 14:32:00,54.7,33.1,30.70,SSE,158,4.9,8.5,44,0.00,,,0.00,WUHU216HW,2013-04-21 18:32:00,
2013-04-21 14:37:00,54.9,33.2,30.69,SE,135,6.3,6.3,44,0.00,,,0.00,WUHU216HW,2013-04-21 18:37:00,
2013-04-21 14:42:00,54.9,33.2,30.70,SE,135,4.7,6.3,44,0.00,,,0.00,WUHU216HW,2013-04-21 18:42:00,
2013-04-21 14:47:00,54.9,33.2,30.69,SE,135,3.8,6.3,44,0.00,,,0.00,WUHU216HW,2013-04-21 18:47:00,
2013-04-21 14:52:00,55.1,32.9,30.69,North,0,1.1,4.7,43,0.00,,,0.00,WUHU216HW,2013-04-21 18:52:00,
2013-04-21 14:57:00,55.3,33.0,30.69,ESE,113,2.5,3.4,43,0.00,,,0.00,WUHU216HW,2013-04-21 18:57:00,
2013-04-21 15:02:00,55.4,33.2,30.69,ENE,68,4.0,4.0,43,0.00,,,0.00,WUHU216HW,2013-04-21 19:02:00,
2013-04-21 15:07:00,55.8,33.5,30.69,ESE,113,5.8,5.8,43,0.00,,,0.00,WUHU216HW,2013-04-21 19:07:00,
2013-04-21 15:12:00,56.0,33.1,30.69,East,90,4.0,5.8,42,0.00,,,0.00,WUHU216HW,2013-04-21 19:12:00,
2013-04-21 15:17:00,56.0,33.1,30.68,SSE,158,5.4,5.8,42,0.00,,,0.00,WUHU216HW,2013-04-21 19:17:00,
2013-04-21 15:22:00,56.2,33.3,30.68,SE,135,2.2,5.4,42,0.00,,,0.00,WUHU216HW,2013-04-21 19:22:00,
2013-04-21 15:27:00,56.5,33.6,30.68,SE,135,3.4,5.4,42,0.00,,,0.00,WUHU216HW,2013-04-21 19:27:00,
2013-04-21 15:32:00,56.9,33.9,30.68,ESE,113,6.9,6.9,42,0.00,,,0.00,WUHU216HW,2013-04-21 19:32:00,
2013-04-21 15:37:00,57.1,34.1,30.69,ENE,68,1.8,6.9,42,0.00,,,0.00,WUHU216HW,2013-04-21 19:37:00,
2013-04-21 15:42:00,57.6,34.6,30.69,SE,135,3.6,6.9,42,0.00,,,0.00,WUHU216HW,2013-04-21 19:42:00,
2013-04-21 15:47:00,57.2,33.1,30.68,ENE,68,4.0,5.1,40,0.00,,,0.00,WUHU216HW,2013-04-21 19:47:00,
2013-04-21 15:52:00,57.2,33.7,30.68,NE,45,6.7,6.7,41,0.00,,,0.00,WUHU216HW,2013-04-21 19:52:00,
2013-04-21 15:57:00,57.2,33.1,30.68,SE,135,5.4,6.7,40,0.00,,,0.00,WUHU216HW,2013-04-21 19:57:00,
2013-04-21 16:02:00,56.9,32.8,30.68,ENE,68,1.3,6.7,40,0.00,,,0.00,WUHU216HW,2013-04-21 20:02:00,
2013-04-21 16:07:00,56.7,32.7,30.68,ESE,113,3.4,5.4,40,0.00,,,0.00,WUHU216HW,2013-04-21 20:07:00,
2013-04-21 16:12:00,56.7,32.0,30.68,ESE,113,4.5,4.7,39,0.00,,,0.00,WUHU216HW,2013-04-21 20:12:00,
2013-04-21 16:17:00,56.2,31.4,30.68,ENE,68,5.4,5.4,39,0.00,,,0.00,WUHU216HW,2013-04-21 20:17:00,
2013-04-21 16:22:00,56.3,32.3,30.69,ESE,113,2.7,5.4,40,0.00,,,0.00,WUHU216HW,2013-04-21 20:22:00,
2013-04-21 16:27:00,56.7,33.2,30.69,SE,135,2.7,5.4,41,0.00,,,0.00,WUHU216HW,2013-04-21 20:27:00,
2013-04-21 16:32:00,57.6,34.0,30.69,SE,135,2.2,3.4,41,0.00,,,0.00,WUHU216HW,2013-04-21 20:32:00,
2013-04-21 16:37:00,57.8,34.2,30.69,SSE,158,5.4,5.6,41,0.00,,,0.00,WUHU216HW,2013-04-21 20:37:00,
2013-04-21 16:42:00,57.2,33.7,30.69,SE,135,4.0,5.6,41,0.00,,,0.00,WUHU216HW,2013-04-21 20:42:00,
2013-04-21 16:47:00,56.7,33.2,30.69,ESE,113,3.8,5.4,41,0.00,,,0.00,WUHU216HW,2013-04-21 20:47:00,
2013-04-21 16:52:00,56.5,33.0,30.69,ESE,113,3.6,3.8,41,0.00,,,0.00,WUHU216HW,2013-04-21 20:52:00,
2013-04-21 16:57:00,57.4,34.5,30.69,ESE,113,1.8,3.8,42,0.00,,,0.00,WUHU216HW,2013-04-21 20:57:00,
2013-04-21 17:02:00,58.7,35.0,30.69,ESE,113,1.8,1.8,41,0.00,,,0.00,WUHU216HW,2013-04-21 21:02:00,
2013-04-21 17:07:00,58.7,35.0,30.69,SE,135,1.8,4.7,41,0.00,,,0.00,WUHU216HW,2013-04-21 21:07:00,
2013-04-21 17:12:00,58.5,34.3,30.69,SSE,158,1.3,4.7,40,0.00,,,0.00,WUHU216HW,2013-04-21 21:12:00,
2013-04-21 17:17:00,60.8,36.4,30.69,SE,135,2.9,2.9,40,0.00,,,0.00,WUHU216HW,2013-04-21 21:17:00,
2013-04-21 17:22:00,61.6,36.3,30.69,ESE,113,0.7,6.3,39,0.00,,,0.00,WUHU216HW,2013-04-21 21:22:00,
2013-04-21 17:27:00,61.2,36.0,30.69,ESE,113,3.1,6.3,39,0.00,,,0.00,WUHU216HW,2013-04-21 21:27:00,
2013-04-21 17:32:00,58.5,33.6,30.69,SSW,203,2.2,3.1,39,0.00,,,0.00,WUHU216HW,2013-04-21 21:32:00,
2013-04-21 17:37:00,57.1,32.9,30.70,SE,135,3.6,3.6,40,0.00,,,0.00,WUHU216HW,2013-04-21 21:37:00,
2013-04-21 17:42:00,56.2,32.7,30.70,SE,135,1.6,3.6,41,0.00,,,0.00,WUHU216HW,2013-04-21 21:42:00,
2013-04-21 17:47:00,55.8,32.9,30.70,ESE,113,0.4,3.6,42,0.00,,,0.00,WUHU216HW,2013-04-21 21:47:00,
2013-04-21 17:52:00,55.4,32.6,30.70,ESE,113,2.0,2.7,42,0.00,,,0.00,WUHU216HW,2013-04-21 21:52:00,
2013-04-21 17:57:00,55.3,33.0,30.70,SE,135,4.0,4.0,43,0.00,,,0.00,WUHU216HW,2013-04-21 21:57:00,
2013-04-21 18:02:00,55.4,33.2,30.70,SE,135,2.7,4.0,43,0.00,,,0.00,WUHU216HW,2013-04-21 22:02:00,
2013-04-21 18:07:00,55.8,33.5,30.70,ESE,113,2.5,2.7,43,0.00,,,0.00,WUHU216HW,2013-04-21 22:07:00,
2013-04-21 18:12:00,55.8,33.5,30.70,ESE,113,1.1,2.5,43,0.00,,,0.00,WUHU216HW,2013-04-21 22:12:00,
2013-04-21 18:17:00,55.4,33.2,30.70,SSE,158,4.3,4.3,43,0.00,,,0.00,WUHU216HW,2013-04-21 22:17:00,
2013-04-21 18:22:00,54.4,32.8,30.70,SE,135,4.5,4.5,44,0.00,,,0.00,WUHU216HW,2013-04-21 22:22:00,
2013-04-21 18:27:00,54.4,33.3,30.69,SE,135,1.8,4.5,45,0.00,,,0.00,WUHU216HW,2013-04-21 22:27:00,
2013-04-21 18:32:00,54.9,33.9,30.70,ESE,113,2.7,4.5,45,0.00,,,0.00,WUHU216HW,2013-04-21 22:32:00,
2013-04-21 18:37:00,54.9,33.9,30.70,SE,135,3.8,4.0,45,0.00,,,0.00,WUHU216HW,2013-04-21 22:37:00,
2013-04-21 18:42:00,55.6,34.5,30.70,NNW,338,0.7,4.0,45,0.00,,,0.00,WUHU216HW,2013-04-21 22:42:00,
2013-04-21 18:48:00,56.3,35.1,30.70,SE,135,1.3,2.9,45,0.00,,,0.00,WUHU216HW,2013-04-21 22:48:00,
2013-04-21 18:53:00,55.8,34.1,30.70,ESE,113,1.6,3.6,44,0.00,,,0.00,WUHU216HW,2013-04-21 22:53:00,
2013-04-21 18:58:00,54.9,33.2,30.70,SSE,158,1.8,3.6,44,0.00,,,0.00,WUHU216HW,2013-04-21 22:58:00,
2013-04-21 19:03:00,54.4,33.3,30.71,SE,135,0.7,4.0,45,0.00,,,0.00,WUHU216HW,2013-04-21 23:03:00,
2013-04-21 19:08:00,53.6,32.7,30.71,ESE,113,0.9,4.0,45,0.00,,,0.00,WUHU216HW,2013-04-21 23:08:00,
2013-04-21 19:13:00,52.9,32.1,30.71,SE,135,1.8,1.8,45,0.00,,,0.00,WUHU216HW,2013-04-21 23:13:00,
2013-04-21 19:18:00,52.2,31.4,30.71,SSE,158,2.5,2.5,45,0.00,,,0.00,WUHU216HW,2013-04-21 23:18:00,
2013-04-21 19:23:00,51.5,30.7,30.71,ESE,113,2.2,2.5,45,0.00,,,0.00,WUHU216HW,2013-04-21 23:23:00,
2013-04-21 19:28:00,50.9,30.8,30.72,SE,135,3.1,3.1,46,0.00,,,0.00,WUHU216HW,2013-04-21 23:28:00,
2013-04-21 19:33:00,50.2,30.2,30.71,East,90,0.4,3.1,46,0.00,,,0.00,WUHU216HW,2013-04-21 23:33:00,
2013-04-21 19:38:00,49.7,30.3,30.72,SE,135,1.1,3.4,47,0.00,,,0.00,WUHU216HW,2013-04-21 23:38:00,
2013-04-21 19:43:00,49.3,29.9,30.72,SSE,158,2.0,3.4,47,0.00,,,0.00,WUHU216HW,2013-04-21 23:43:00,
2013-04-21 19:48:00,49.0,30.1,30.72,SE,135,1.1,2.0,48,0.00,,,0.00,WUHU216HW,2013-04-21 23:48:00,
2013-04-21 19:53:00,48.6,29.7,30.72,East,90,1.1,3.4,48,0.00,,,0.00,WUHU216HW,2013-04-21 23:53:00,
2013-04-21 19:58:00,48.2,29.3,30.72,SE,135,0.7,4.5,48,0.00,,,0.00,WUHU216HW,2013-04-21 23:58:00,
2013-04-21 20:03:00,47.9,29.5,30.73,SSE,158,1.8,4.5,49,0.00,,,0.00,WUHU216HW,2013-04-22 00:03:00,
2013-04-21 20:08:00,47.5,29.8,30.73,SE,135,0.0,2.2,50,0.00,,,0.00,WUHU216HW,2013-04-22 00:08:00,
2013-04-21 20:13:00,47.3,29.6,30.73,ESE,113,0.4,2.2,50,0.00,,,0.00,WUHU216HW,2013-04-22 00:13:00,
2013-04-21 20:18:00,47.2,29.9,30.73,SE,135,0.2,0.7,51,0.00,,,0.00,WUHU216HW,2013-04-22 00:18:00,
2013-04-21 20:23:00,47.0,29.7,30.74,SE,135,0.4,1.1,51,0.00,,,0.00,WUHU216HW,2013-04-22 00:23:00,
2013-04-21 20:28:00,46.8,30.1,30.73,SE,135,0.0,1.1,52,0.00,,,0.00,WUHU216HW,2013-04-22 00:28:00,
2013-04-21 20:33:00,46.6,29.9,30.74,SE,135,0.7,0.7,52,0.00,,,0.00,WUHU216HW,2013-04-22 00:33:00,
2013-04-21 20:38:00,46.4,29.7,30.74,ESE,113,0.0,0.7,52,0.00,,,0.00,WUHU216HW,2013-04-22 00:38:00,
2013-04-21 20:43:00,46.1,29.8,30.74,ESE,113,0.7,0.7,53,0.00,,,0.00,WUHU216HW,2013-04-22 00:43:00,
2013-04-21 20:48:00,45.7,29.5,30.74,ESE,113,0.0,0.7,53,0.00,,,0.00,WUHU216HW,2013-04-22 00:48:00,
2013-04-21 20:53:00,45.5,29.8,30.74,SSE,158,0.2,0.9,54,0.00,,,0.00,WUHU216HW,2013-04-22 00:53:00,
2013-04-21 20:58:00,45.4,29.6,30.75,SSE,158,0.0,1.1,54,0.00,,,0.00,WUHU216HW,2013-04-22 00:58:00,
2013-04-21 21:03:00,45.2,29.9,30.75,SSE,158,0.4,1.1,55,0.00,,,0.00,WUHU216HW,2013-04-22 01:03:00,
2013-04-21 21:08:00,45.0,29.8,30.75,ESE,113,0.4,0.4,55,0.00,,,0.00,WUHU216HW,2013-04-22 01:08:00,
2013-04-21 21:13:00,45.0,29.8,30.75,SE,135,0.4,0.4,55,0.00,,,0.00,WUHU216HW,2013-04-22 01:13:00,
2013-04-21 21:18:00,44.8,29.6,30.75,SE,135,0.4,0.4,55,0.00,,,0.00,WUHU216HW,2013-04-22 01:18:00,
2013-04-21 21:23:00,44.6,29.4,30.75,SE,135,0.2,0.4,55,0.00,,,0.00,WUHU216HW,2013-04-22 01:23:00,
2013-04-21 21:28:00,44.5,29.3,30.75,SE,135,0.0,0.4,55,0.00,,,0.00,WUHU216HW,2013-04-22 01:28:00,
2013-04-21 21:34:00,44.3,29.5,30.75,SE,135,0.4,0.4,56,0.00,,,0.00,WUHU216HW,2013-04-22 01:34:00,
2013-04-21 21:39:00,44.3,29.5,30.74,SE,135,0.0,0.4,56,0.00,,,0.00,WUHU216HW,2013-04-22 01:39:00,
2013-04-21 21:44:00,43.9,29.2,30.75,SE,135,0.0,0.0,56,0.00,,,0.00,WUHU216HW,2013-04-22 01:44:00,
2013-04-21 21:56:00,43.6,29.3,30.74,SE,135,0.0,0.0,57,0.00,,,0.00,WUHU216HW,2013-04-22 01:56:00,
2013-04-21 22:01:00,43.6,29.3,30.74,SE,135,0.0,0.0,57,0.00,,,0.00,WUHU216HW,2013-04-22 02:01:00,
2013-04-21 22:06:00,43.4,29.5,30.74,SE,135,0.0,0.0,58,0.00,,,0.00,WUHU216HW,2013-04-22 02:06:00,
2013-04-21 22:11:00,43.4,29.5,30.74,SE,135,0.0,0.0,58,0.00,,,0.00,WUHU216HW,2013-04-22 02:11:00,
2013-04-21 22:16:00,43.2,29.3,30.74,SE,135,0.0,0.0,58,0.00,,,0.00,WUHU216HW,2013-04-22 02:16:00,
2013-04-21 22:21:00,43.0,29.2,30.73,SE,135,0.0,0.0,58,0.00,,,0.00,WUHU216HW,2013-04-22 02:21:00,
2013-04-21 22:26:00,43.0,29.6,30.74,SE,135,0.0,0.0,59,0.00,,,0.00,WUHU216HW,2013-04-22 02:26:00,
2013-04-21 22:32:00,42.8,29.4,30.74,SE,135,0.0,0.0,59,0.00,,,0.00,WUHU216HW,2013-04-22 02:32:00,
2013-04-21 22:37:00,42.8,29.4,30.74,SE,135,0.0,0.0,59,0.00,,,0.00,WUHU216HW,2013-04-22 02:37:00,
2013-04-21 22:42:00,42.7,29.7,30.74,SE,135,0.0,0.0,60,0.00,,,0.00,WUHU216HW,2013-04-22 02:42:00,
2013-04-21 22:47:00,42.5,29.5,30.74,SE,135,0.0,0.0,60,0.00,,,0.00,WUHU216HW,2013-04-22 02:47:00,
2013-04-21 22:52:00,42.3,29.4,30.74,SE,135,0.0,0.0,60,0.00,,,0.00,WUHU216HW,2013-04-22 02:52:00,
2013-04-21 22:57:00,42.1,29.6,30.74,SE,135,0.0,0.0,61,0.00,,,0.00,WUHU216HW,2013-04-22 02:57:00,
2013-04-21 23:02:00,41.9,29.4,30.74,SE,135,0.0,0.0,61,0.00,,,0.00,WUHU216HW,2013-04-22 03:02:00,
2013-04-21 23:07:00,41.9,29.4,30.74,SE,135,0.0,0.0,61,0.00,,,0.00,WUHU216HW,2013-04-22 03:07:00,
2013-04-21 23:12:00,41.9,29.9,30.74,SE,135,0.0,0.0,62,0.00,,,0.00,WUHU216HW,2013-04-22 03:12:00,
2013-04-21 23:17:00,41.8,29.7,30.74,SE,135,0.0,0.0,62,0.00,,,0.00,WUHU216HW,2013-04-22 03:17:00,
2013-04-21 23:22:00,41.6,29.5,30.74,SE,135,0.0,0.0,62,0.00,,,0.00,WUHU216HW,2013-04-22 03:22:00,
2013-04-21 23:27:00,41.4,29.7,30.74,SE,135,0.0,0.0,63,0.00,,,0.00,WUHU216HW,2013-04-22 03:27:00,
2013-04-21 23:32:00,41.4,29.7,30.74,SE,135,0.0,0.0,63,0.00,,,0.00,WUHU216HW,2013-04-22 03:32:00,
2013-04-21 23:37:00,41.2,29.5,30.74,SE,135,0.0,0.0,63,0.00,,,0.00,WUHU216HW,2013-04-22 03:37:00,
2013-04-21 23:42:00,41.0,29.8,30.74,SE,135,0.2,0.2,64,0.00,,,0.00,WUHU216HW,2013-04-22 03:42:00,
2013-04-21 23:47:00,40.9,29.6,30.75,SE,135,0.0,0.2,64,0.00,,,0.00,WUHU216HW,2013-04-22 03:47:00,
2013-04-21 23:54:00,40.7,29.4,30.74,SE,135,0.0,0.0,64,0.00,,,0.00,WUHU216HW,2013-04-22 03:54:00,
2013-04-21 23:59:00,40.7,29.8,30.74,SE,135,0.0,0.0,65,0.00,,,0.00,WUHU216HW,2013-04-22 03:59:00,